Location: Absher
(46.5583°N, 107.9840°W)
Time: 05:56:24
(UTC+00:00)

Tiangong - Pass Details

Date: 13 December 2022
Orbit: 382 x 386 km, 41.5° (Epoch: 05 February)

Event Time Altitude Azimuth Distance (km) Brightness Sun altitude
Rises 00:25:22 0° 262° (W) 2,252 3.5 -10.0°
Reaches altitude 10° 00:28:49 10° 222° (SW) 1,395 1.8 -10.6°
Maximum altitude 00:29:36 11° 208° (SSW) 1,355 1.4 -10.7°
Drops below altitude 10° 00:30:22 10° 193° (SSW) 1,393 1.2 -10.8°
Sets 00:33:49 0° 153° (SSE) 2,241 1.7 -11.4°
